"startDT [UTC]","vpos","CH4 [ppm]","stdev(CH4) [ppm]","CO2 [ppm]","stdev(CO2) [ppm]","H2O_reported [%]","stdev(H2O_reported)","CavityPressure [torr]","CavityTemp [C]","OutletValve","CH4_dry [ppm]","CO2_dry [ppm]","DasTemp [C]","EtalonTemp [C]","WarmBoxTemp [C]","MPVPosition","T_ECpre [C]","T_EC1 [C]","T_EC2 [C]","p_inlet [hPa]","p_in [hPa]","p_out [hPa]","T_inlet [C]","RH_inlet [%]","dwpt_inlet [C]","T_vent [C]","RH_vent [%]","dwpt_vent [C]","flow_vent [l min-1]","flow_inlet [l min-1]","dwpt_sample [C]","T_room [C]"
2016-10-23 00:00:00,0.0,1.95869,0.00073,406.902,0.034,0.2566,0.0013,140.000,45.000,31234.44815,1.96357,408.168,31.802,45.073,45.000,0.00,0.07,-272.85,-272.89,-1,516,-917,15.4,11.0,-15.0,15.9,10.8,-14.7,0.47,1.85,-13.4,22.3
2016-10-23 00:01:00,0.0,1.95898,0.00083,406.894,0.030,0.2596,0.0031,139.999,45.000,31233.41238,1.96406,408.172,31.804,45.073,45.000,0.00,0.07,-272.86,-272.89,-1,515,-917,15.4,11.1,-14.9,15.9,10.9,-14.7,0.47,1.84,-13.4,22.2
2016-10-23 00:02:00,0.0,1.95872,0.00045,406.867,0.041,0.2603,0.0012,140.001,45.000,31233.48965,1.96376,408.151,31.805,45.073,45.000,0.00,0.07,-272.86,-272.90,-1,516,-917,15.4,11.1,-14.8,15.9,11.0,-14.6,0.47,1.84,-13.4,22.3
2016-10-23 00:03:00,0.0,1.95898,0.00052,406.819,0.037,0.2594,0.0020,140.001,45.000,31236.27245,1.96401,408.096,31.787,45.072,45.000,0.00,0.07,-272.85,-272.89,-1,515,-917,15.4,11.1,-14.8,15.9,10.9,-14.6,0.47,1.83,-13.4,22.3
2016-10-23 00:04:00,0.0,1.95906,0.00044,406.853,0.030,0.2586,0.0015,140.001,45.000,31235.25731,1.96409,408.127,31.795,45.072,45.000,0.00,0.07,-272.85,-272.89,-1,515,-917,15.4,11.1,-14.9,15.9,10.9,-14.7,0.47,1.84,-13.4,22.3
2016-10-23 00:05:00,0.0,1.95930,0.00079,406.846,0.035,0.2593,0.0015,139.999,45.000,31234.00036,1.96428,408.123,31.791,45.073,45.000,0.00,0.07,-272.86,-272.90,-1,515,-917,15.4,11.1,-14.8,15.9,10.9,-14.7,0.47,1.85,-13.4,22.3
2016-10-23 00:06:00,0.0,1.95890,0.00084,406.837,0.045,0.2621,0.0030,140.001,45.000,31234.82998,1.96406,408.128,31.810,45.073,45.000,0.00,0.07,-272.86,-272.89,-2,515,-917,15.4,11.2,-14.7,15.9,11.0,-14.6,0.47,1.86,-13.4,22.3
2016-10-23 00:07:00,0.0,1.95857,0.00045,406.864,0.036,0.2618,0.0028,140.001,45.000,31235.97491,1.96365,408.154,31.813,45.072,45.000,0.00,0.07,-272.85,-272.88,-1,515,-917,15.4,11.2,-14.8,15.9,11.0,-14.5,0.47,1.87,-13.4,22.2
2016-10-23 00:08:00,0.0,1.95842,0.00057,406.868,0.031,0.2615,0.0020,140.004,45.000,31237.38317,1.96350,408.155,31.817,45.073,45.000,0.00,0.07,-272.86,-272.89,-1,515,-917,15.4,11.2,-14.8,15.9,11.0,-14.6,0.47,1.89,-13.3,22.3
2016-10-23 00:09:00,0.0,1.95869,0.00046,406.887,0.031,0.2613,0.0020,140.001,45.000,31235.72607,1.96375,408.175,31.827,45.072,45.000,0.00,0.07,-272.86,-272.89,-1,516,-917,15.4,11.2,-14.8,15.9,11.0,-14.6,0.47,1.90,-13.4,22.3
2016-10-23 00:10:00,0.0,1.95869,0.00058,406.884,0.030,0.2635,0.0016,140.002,45.000,31237.68997,1.96383,408.182,31.855,45.072,45.000,0.00,0.07,-272.86,-272.88,-1,515,-917,15.4,11.3,-14.7,15.8,11.0,-14.5,0.47,1.90,-13.3,22.3
2016-10-23 00:11:00,0.0,1.95801,0.00055,406.840,0.045,0.2641,0.0022,140.001,45.000,31239.53327,1.96312,408.141,31.864,45.072,45.000,0.00,0.07,-272.86,-272.89,-1,516,-917,15.4,11.4,-14.6,15.8,11.2,-14.4,0.47,1.90,-13.4,22.3
2016-10-23 00:12:00,0.0,1.96012,0.00091,406.896,0.048,0.2661,0.0023,140.000,45.000,31239.30101,1.96528,408.208,31.871,45.072,45.000,0.00,0.07,-272.86,-272.89,-1,516,-917,15.4,11.4,-14.5,15.9,11.2,-14.4,0.47,1.89,-13.4,22.3
2016-10-23 00:13:00,0.0,1.95827,0.00077,406.764,0.050,0.2724,0.0029,140.000,45.000,31238.41631,1.96357,408.106,31.874,45.072,45.000,0.00,0.07,-272.85,-272.89,-1,516,-917,15.4,11.6,-14.3,15.8,11.4,-14.1,0.47,1.88,-13.3,22.3
2016-10-23 00:14:00,0.0,1.95800,0.00038,406.854,0.035,0.2674,0.0021,140.001,45.000,31237.99342,1.96319,408.171,31.876,45.072,45.000,0.00,0.07,-272.85,-272.89,-1,515,-917,15.4,11.5,-14.4,15.9,11.3,-14.2,0.47,1.86,-13.3,22.3
2016-10-23 00:15:00,0.0,1.95832,0.00097,406.854,0.038,0.2658,0.0018,140.000,45.001,31238.70130,1.96355,408.163,31.876,45.072,45.000,0.00,0.07,-272.86,-272.89,-1,516,-917,15.4,11.4,-14.5,15.9,11.3,-14.3,0.47,1.85,-13.3,22.3
2016-10-23 00:16:00,0.0,1.95752,0.00066,406.878,0.034,0.2646,0.0021,140.000,45.000,31238.09488,1.96266,408.183,31.882,45.072,45.000,0.00,0.07,-272.86,-272.89,-1,516,-917,15.4,11.3,-14.5,15.9,11.2,-14.3,0.47,1.84,-13.3,22.3
2016-10-23 00:17:00,0.0,1.95772,0.00085,406.838,0.048,0.2670,0.0017,140.000,45.000,31238.56556,1.96283,408.152,31.892,45.072,45.000,0.00,0.07,-272.86,-272.88,-1,515,-917,15.4,11.4,-14.5,15.9,11.2,-14.3,0.47,1.83,-13.3,22.3
2016-10-23 00:18:00,0.0,1.95781,0.00052,406.859,0.027,0.2661,0.0022,139.997,45.000,31237.49904,1.96302,408.170,31.931,45.072,45.000,0.00,0.07,-272.86,-272.89,-1,516,-917,15.4,11.4,-14.5,15.9,11.2,-14.3,0.47,1.83,-13.3,22.3
2016-10-23 00:19:00,0.0,1.95722,0.00060,406.823,0.030,0.2682,0.0017,140.003,45.000,31242.10802,1.96242,408.145,31.934,45.072,45.000,0.00,0.07,-272.87,-272.90,-1,516,-917,15.4,11.4,-14.4,15.9,11.3,-14.3,0.47,1.85,-13.3,22.3
2016-10-23 00:20:00,0.0,1.95759,0.00086,406.840,0.054,0.2666,0.0024,140.001,45.000,31244.83393,1.96276,408.153,31.929,45.072,45.000,0.00,0.07,-272.86,-272.89,-1,516,-917,15.5,11.4,-14.5,15.9,11.2,-14.3,0.47,1.86,-13.3,22.3
2016-10-23 00:21:00,0.0,1.95738,0.00061,406.827,0.029,0.2703,0.0019,140.001,45.000,31241.00637,1.96262,408.160,31.926,45.072,45.000,0.00,0.07,-272.85,-272.89,-1,516,-917,15.5,11.5,-14.3,15.9,11.3,-14.2,0.47,1.87,-13.3,22.3
2016-10-23 00:22:00,0.0,1.95745,0.00050,406.844,0.031,0.2685,0.0013,140.002,45.000,31241.48007,1.96262,408.166,31.936,45.072,45.000,0.00,0.07,-272.86,-272.89,-1,516,-917,15.4,11.5,-14.4,15.9,11.3,-14.2,0.47,1.89,-13.3,22.3
2016-10-23 00:23:00,0.0,1.95741,0.00065,406.818,0.040,0.2695,0.0016,140.000,45.000,31242.04996,1.96264,408.146,31.916,45.072,45.000,0.00,0.07,-272.85,-272.89,-1,516,-917,15.5,11.5,-14.3,15.9,11.3,-14.2,0.47,1.89,-13.3,22.4
2016-10-23 00:24:00,0.0,1.95803,0.00058,406.798,0.045,0.2691,0.0022,140.000,45.000,31240.31808,1.96325,408.122,31.885,45.072,45.000,0.00,0.07,-272.85,-272.89,-1,515,-917,15.4,11.5,-14.3,15.9,11.4,-14.1,0.47,1.90,-13.3,22.4
2016-10-23 00:25:00,0.0,1.95764,0.00072,406.833,0.029,0.2672,0.0019,140.001,45.000,31241.49511,1.96286,408.151,31.875,45.072,45.000,0.00,0.07,-272.86,-272.89,-1,516,-917,15.5,11.4,-14.4,15.9,11.3,-14.2,0.47,1.90,-13.3,22.4
2016-10-23 00:26:00,0.0,1.95742,0.00059,406.786,0.028,0.2678,0.0020,140.000,45.000,31241.72131,1.96259,408.107,31.875,45.073,45.001,0.00,0.07,-272.86,-272.89,-1,516,-917,15.5,11.4,-14.4,15.9,11.3,-14.2,0.47,1.89,-13.3,22.4
2016-10-23 00:27:00,0.0,1.95736,0.00039,406.773,0.045,0.2667,0.0015,139.999,45.000,31242.35164,1.96253,408.085,31.878,45.073,45.000,0.00,0.07,-272.86,-272.89,-1,516,-917,15.5,11.4,-14.5,15.9,11.2,-14.3,0.47,1.87,-13.3,22.4
2016-10-23 00:28:00,0.0,1.95727,0.00045,406.820,0.030,0.2657,0.0021,140.000,45.000,31241.04194,1.96246,408.130,31.884,45.073,45.000,0.00,0.07,-272.86,-272.89,-2,516,-917,15.5,11.3,-14.5,15.9,11.2,-14.3,0.47,1.87,-13.3,22.4
2016-10-23 00:29:00,0.0,1.95713,0.00059,406.768,0.035,0.2670,0.0026,139.999,45.000,31242.97673,1.96228,408.084,31.899,45.073,45.000,0.00,0.07,-272.86,-272.90,-2,516,-917,15.5,11.4,-14.5,15.9,11.2,-14.3,0.47,1.85,-13.3,22.4
2016-10-23 00:30:00,0.0,1.95708,0.00071,406.783,0.036,0.2656,0.0019,140.002,45.000,31242.91978,1.96221,408.091,31.899,45.073,45.000,0.00,0.07,-272.85,-272.90,-1,516,-917,15.5,11.3,-14.5,15.9,11.2,-14.3,0.47,1.84,-13.3,22.4
2016-10-23 00:31:00,0.0,1.95717,0.00053,406.779,0.053,0.2672,0.0022,140.001,45.000,31242.60390,1.96238,408.097,31.922,45.072,45.000,0.00,0.07,-272.85,-272.89,-1,516,-917,15.5,11.3,-14.5,16.0,11.2,-14.3,0.47,1.83,-13.3,22.4
2016-10-23 00:32:00,0.0,1.95693,0.00047,406.776,0.040,0.2640,0.0024,140.000,45.000,31243.93465,1.96206,408.076,31.929,45.072,45.000,0.00,0.07,-272.86,-272.90,-1,516,-917,15.5,11.2,-14.6,16.0,11.1,-14.3,0.47,1.83,-13.3,22.4
2016-10-23 00:33:00,0.0,1.95666,0.00057,406.804,0.027,0.2654,0.0017,140.003,45.000,31245.06412,1.96180,408.111,31.932,45.072,45.000,0.00,0.07,-272.86,-272.89,-1,516,-917,15.5,11.3,-14.5,16.0,11.1,-14.4,0.47,1.84,-13.3,22.4
2016-10-23 00:34:00,0.0,1.95699,0.00058,406.767,0.025,0.2676,0.0019,140.001,45.000,31242.66684,1.96219,408.085,31.919,45.072,45.000,0.00,0.07,-272.85,-272.89,-1,516,-917,15.5,11.4,-14.4,16.0,11.2,-14.3,0.47,1.85,-13.3,22.4
2016-10-23 00:35:00,0.0,1.95715,0.00051,406.741,0.025,0.2645,0.0015,140.000,45.000,31242.23193,1.96228,408.044,31.914,45.072,45.000,0.00,0.07,-272.86,-272.89,-1,516,-917,15.5,11.3,-14.5,16.0,11.2,-14.3,0.47,1.86,-13.3,22.4
2016-10-23 00:36:00,0.0,1.95714,0.00056,406.787,0.051,0.2653,0.0016,140.001,45.000,31242.91863,1.96227,408.093,31.939,45.072,45.000,0.00,0.07,-272.86,-272.90,-1,516,-917,15.5,11.2,-14.6,16.0,11.1,-14.3,0.47,1.89,-13.3,22.4
2016-10-23 00:37:00,0.0,1.95723,0.00102,406.794,0.036,0.2676,0.0021,140.003,45.000,31244.16116,1.96247,408.112,31.938,45.072,45.000,0.00,0.07,-272.86,-272.89,-1,516,-917,15.5,11.4,-14.4,16.0,11.2,-14.3,0.47,1.90,-13.3,22.4
2016-10-23 00:38:00,0.0,1.95666,0.00076,406.771,0.029,0.2679,0.0025,140.002,45.000,31244.80144,1.96180,408.092,31.937,45.072,45.000,0.00,0.07,-272.86,-272.89,-1,516,-917,15.6,11.4,-14.4,16.0,11.2,-14.2,0.47,1.90,-13.3,22.4
2016-10-23 00:39:00,0.0,1.95726,0.00076,406.714,0.034,0.2723,0.0020,139.999,45.000,31242.56460,1.96252,408.056,31.939,45.072,45.000,0.00,0.07,-272.86,-272.90,-1,516,-917,15.6,11.5,-14.3,16.0,11.3,-14.1,0.47,1.90,-13.3,22.4
2016-10-23 00:40:00,0.0,1.95748,0.00068,406.694,0.037,0.2679,0.0023,139.999,45.000,31244.68490,1.96270,408.014,31.954,45.072,45.000,0.00,0.07,-272.86,-272.89,-1,516,-917,15.6,11.4,-14.4,16.0,11.3,-14.1,0.47,1.90,-13.3,22.4
2016-10-23 00:41:00,0.0,1.95731,0.00040,406.683,0.048,0.2677,0.0023,140.000,45.000,31245.74031,1.96254,407.999,31.977,45.072,45.000,0.00,0.07,-272.86,-272.89,-1,516,-917,15.6,11.3,-14.4,16.0,11.2,-14.2,0.47,1.88,-13.3,22.4
2016-10-23 00:42:00,0.0,1.95729,0.00055,406.718,0.025,0.2649,0.0019,140.002,45.000,31245.94615,1.96236,408.023,31.957,45.072,45.000,0.00,0.07,-272.86,-272.89,-1,516,-917,15.6,11.2,-14.6,16.0,11.1,-14.3,0.47,1.87,-13.3,22.4
2016-10-23 00:43:00,0.0,1.95696,0.00057,406.732,0.027,0.2644,0.0016,140.000,45.000,31246.85707,1.96213,408.034,31.956,45.072,45.000,0.00,0.07,-272.86,-272.90,-2,516,-917,15.6,11.1,-14.6,16.0,11.0,-14.4,0.47,1.85,-13.3,22.4
2016-10-23 00:44:00,0.0,1.95719,0.00045,406.728,0.038,0.2650,0.0026,140.001,45.000,31245.30988,1.96231,408.033,31.972,45.072,45.000,0.00,0.07,-272.85,-272.89,-2,516,-917,15.6,11.2,-14.6,16.1,11.0,-14.4,0.47,1.84,-13.3,22.4
2016-10-23 00:45:00,0.0,1.95723,0.00065,406.693,0.042,0.2678,0.0016,140.000,45.000,31244.94307,1.96249,408.013,31.982,45.072,45.000,0.00,0.07,-272.86,-272.89,-2,516,-917,15.6,11.3,-14.4,16.1,11.1,-14.3,0.47,1.83,-13.3,22.4
2016-10-23 00:46:00,0.0,1.95758,0.00053,406.692,0.043,0.2673,0.0020,139.998,45.000,31245.84202,1.96270,408.011,31.970,45.072,45.000,0.00,0.07,-272.87,-272.90,-1,516,-917,15.6,11.2,-14.5,16.1,11.1,-14.3,0.47,1.83,-13.3,22.5
2016-10-23 00:47:00,0.0,1.95708,0.00044,406.656,0.042,0.2654,0.0022,140.000,45.000,31247.45163,1.96224,407.962,31.961,45.072,45.000,0.00,0.07,-272.85,-272.89,-1,516,-917,15.7,11.2,-14.5,16.1,11.1,-14.3,0.47,1.84,-13.3,22.5
2016-10-23 00:48:00,0.0,1.95695,0.00047,406.698,0.046,0.2623,0.0019,139.999,45.000,31246.45129,1.96206,407.992,31.955,45.073,45.000,0.00,0.07,-272.86,-272.89,-1,516,-917,15.7,11.1,-14.6,16.1,11.0,-14.4,0.47,1.85,-13.3,22.5
2016-10-23 00:49:00,0.0,1.95761,0.00074,406.682,0.058,0.2633,0.0014,140.001,45.000,31246.77406,1.96266,407.976,31.975,45.072,45.000,0.00,0.07,-272.86,-272.89,-1,516,-917,15.7,11.1,-14.6,16.1,11.0,-14.4,0.47,1.87,-13.3,22.5
2016-10-23 00:50:00,0.0,1.95789,0.00045,406.671,0.044,0.2665,0.0033,140.001,45.000,31247.54096,1.96308,407.984,31.996,45.072,45.000,0.00,0.07,-272.86,-272.89,-1,516,-917,15.7,11.2,-14.5,16.1,11.0,-14.4,0.47,1.88,-13.3,22.5
2016-10-23 00:51:00,0.0,1.95728,0.00096,406.708,0.036,0.2664,0.0028,139.999,45.000,31247.68520,1.96248,408.020,31.998,45.072,45.000,0.00,0.07,-272.86,-272.88,-2,516,-917,15.7,11.2,-14.5,16.1,11.1,-14.3,0.47,1.89,-13.3,22.5
2016-10-23 00:52:00,0.0,1.95678,0.00057,406.726,0.023,0.2639,0.0020,139.999,45.000,31248.37575,1.96190,408.026,31.999,45.072,45.000,0.00,0.07,-272.86,-272.89,-2,516,-917,15.7,11.1,-14.6,16.1,11.0,-14.4,0.47,1.89,-13.2,22.5
2016-10-23 00:53:00,0.0,1.95719,0.00066,406.748,0.036,0.2637,0.0023,139.998,45.000,31247.45753,1.96228,408.048,32.000,45.072,45.000,0.00,0.07,-272.86,-272.90,-2,516,-917,15.7,11.1,-14.6,16.1,10.9,-14.4,0.47,1.90,-13.3,22.5
2016-10-23 00:54:00,0.0,1.95646,0.00053,406.685,0.031,0.2688,0.0023,140.001,45.000,31248.08084,1.96168,408.008,32.001,45.072,45.000,0.00,0.07,-272.86,-272.89,-1,516,-917,15.7,11.2,-14.4,16.1,11.1,-14.3,0.47,1.89,-13.3,22.5
2016-10-23 00:55:00,0.0,1.95792,0.00062,406.708,0.032,0.2640,0.0021,139.998,45.000,31247.43925,1.96302,408.007,32.000,45.072,45.000,0.00,0.07,-272.86,-272.89,-1,516,-917,15.7,11.1,-14.6,16.1,11.0,-14.4,0.47,1.88,-13.2,22.5
2016-10-23 00:56:00,0.0,1.95753,0.00055,406.687,0.038,0.2677,0.0021,139.999,45.000,31249.77728,1.96272,408.006,32.001,45.072,45.000,0.00,0.07,-272.86,-272.90,-1,516,-917,15.7,11.2,-14.4,16.1,11.0,-14.3,0.47,1.86,-13.2,22.5
2016-10-23 00:57:00,0.0,1.95766,0.00061,406.701,0.036,0.2665,0.0018,140.000,45.000,31247.93593,1.96287,408.014,32.000,45.072,45.000,0.00,0.07,-272.85,-272.89,-1,516,-917,15.7,11.2,-14.5,16.1,11.1,-14.3,0.47,1.85,-13.2,22.5
2016-10-23 00:58:00,0.0,1.95743,0.00076,406.694,0.032,0.2643,0.0023,139.999,45.000,31249.47204,1.96255,407.996,31.998,45.072,45.000,0.00,0.07,-272.85,-272.89,-1,516,-917,15.7,11.1,-14.6,16.1,11.0,-14.4,0.47,1.83,-13.2,22.5
2016-10-23 00:59:00,0.0,1.95765,0.00075,406.684,0.026,0.2683,0.0017,139.999,45.000,31249.33691,1.96284,408.006,31.995,45.072,45.000,0.00,0.07,-272.86,-272.89,-2,516,-917,15.7,11.2,-14.4,16.1,11.0,-14.3,0.47,1.83,-13.2,22.5
2016-10-23 01:00:00,0.0,1.95821,0.00075,406.687,0.034,0.2683,0.0023,139.999,45.000,31248.85411,1.96341,408.008,31.998,45.072,45.000,0.00,0.07,-272.86,-272.89,-2,516,-917,15.7,11.2,-14.4,16.1,11.1,-14.2,0.47,1.83,-13.2,22.5
2016-10-23 01:01:00,0.0,1.95733,0.00089,406.683,0.037,0.2651,0.0013,139.999,45.000,31248.98525,1.96251,407.989,32.000,45.072,45.000,0.00,0.07,-272.86,-272.88,-2,516,-917,15.7,11.1,-14.5,16.1,11.0,-14.3,0.47,1.84,-13.2,22.5
2016-10-23 01:02:00,0.0,1.95714,0.00063,406.674,0.029,0.2651,0.0020,139.998,45.000,31248.39390,1.96228,407.979,31.994,45.072,45.000,0.00,0.07,-272.86,-272.89,-1,516,-917,15.7,11.1,-14.6,16.1,11.0,-14.4,0.47,1.85,-13.2,22.5
2016-10-23 01:03:00,0.0,1.95686,0.00078,406.650,0.038,0.2642,0.0027,140.002,45.000,31253.02959,1.96191,407.951,31.997,45.072,45.000,0.00,0.07,-272.86,-272.90,-1,516,-917,15.7,11.1,-14.6,16.1,11.0,-14.4,0.47,1.86,-13.2,22.5
2016-10-23 01:04:00,0.0,1.95859,0.00073,406.687,0.029,0.2651,0.0031,140.001,45.000,31251.38733,1.96371,407.991,31.998,45.072,45.000,0.00,0.07,-272.85,-272.89,-1,516,-917,15.7,11.1,-14.6,16.1,10.9,-14.4,0.47,1.88,-13.2,22.5
2016-10-23 01:05:00,0.0,1.95727,0.00073,406.657,0.035,0.2664,0.0027,140.001,45.000,31251.06013,1.96248,407.969,31.983,45.072,45.000,0.00,0.07,-272.86,-272.89,-1,516,-917,15.7,11.2,-14.5,16.1,11.0,-14.3,0.47,1.89,-13.2,22.5
2016-10-23 01:06:00,0.0,1.95711,0.00109,406.675,0.032,0.2649,0.0023,140.001,45.000,31252.84058,1.96228,407.981,31.980,45.072,45.000,0.00,0.07,-272.86,-272.90,-1,516,-917,15.7,11.1,-14.6,16.1,11.0,-14.4,0.47,1.90,-13.2,22.5
2016-10-23 01:07:00,0.0,1.95786,0.00090,406.680,0.041,0.2662,0.0019,140.001,45.000,31252.59350,1.96304,407.988,31.984,45.072,45.000,0.00,0.07,-272.86,-272.89,-2,516,-917,15.7,11.2,-14.5,16.1,11.0,-14.4,0.47,1.90,-13.2,22.5
2016-10-23 01:08:00,0.0,1.95650,0.00079,406.651,0.034,0.2679,0.0031,140.000,45.000,31252.21758,1.96169,407.972,32.000,45.072,45.000,0.00,0.07,-272.85,-272.88,-2,516,-917,15.7,11.2,-14.4,16.1,11.1,-14.3,0.47,1.89,-13.2,22.5
2016-10-23 01:09:00,0.0,1.95613,0.00059,406.665,0.045,0.2636,0.0018,140.002,45.000,31253.69545,1.96126,407.964,32.000,45.072,45.000,0.00,0.07,-272.86,-272.90,-1,516,-917,15.7,11.1,-14.6,16.1,11.0,-14.4,0.47,1.88,-13.2,22.5
2016-10-23 01:10:00,0.0,1.95674,0.00046,406.689,0.037,0.2639,0.0018,139.997,45.000,31251.31376,1.96182,407.987,32.001,45.072,45.000,0.00,0.07,-272.86,-272.89,-1,516,-917,15.7,11.1,-14.6,16.1,10.9,-14.5,0.47,1.86,-13.2,22.5
2016-10-23 01:11:00,0.0,1.95708,0.00088,406.695,0.028,0.2650,0.0018,140.000,45.000,31252.18105,1.96224,408.001,32.000,45.072,45.000,0.00,0.07,-272.85,-272.89,-1,516,-917,15.7,11.1,-14.6,16.1,10.9,-14.4,0.47,1.84,-13.2,22.5
2016-10-23 01:12:00,0.0,1.95669,0.00047,406.680,0.037,0.2654,0.0016,139.998,45.000,31251.17952,1.96183,407.988,32.001,45.072,45.000,0.00,0.07,-272.86,-272.89,-1,516,-917,15.7,11.2,-14.5,16.1,11.0,-14.4,0.47,1.83,-13.2,22.5
2016-10-23 01:13:00,0.0,1.95638,0.00064,406.677,0.035,0.2669,0.0023,140.000,45.000,31252.71035,1.96155,407.990,32.016,45.072,45.000,0.00,0.07,-272.86,-272.90,-1,516,-917,15.6,11.2,-14.5,16.1,11.0,-14.3,0.47,1.83,-13.2,22.5
2016-10-23 01:14:00,0.0,1.95686,0.00058,406.699,0.035,0.2693,0.0029,140.001,45.000,31251.90652,1.96203,408.025,32.041,45.072,45.000,0.00,0.07,-272.85,-272.90,-2,516,-917,15.7,11.3,-14.4,16.1,11.1,-14.2,0.47,1.83,-13.2,22.5
2016-10-23 01:15:00,0.0,1.95707,0.00089,406.664,0.034,0.2720,0.0021,140.004,45.000,31252.39282,1.96239,408.005,32.056,45.072,45.000,0.00,0.07,-272.85,-272.89,-2,516,-917,15.7,11.5,-14.2,16.1,11.2,-14.1,0.47,1.84,-13.2,22.5
2016-10-23 01:16:00,0.0,1.95619,0.00066,406.656,0.039,0.2709,0.0023,139.999,45.000,31249.76440,1.96146,407.992,32.061,45.072,45.000,0.00,0.07,-272.86,-272.89,-1,516,-917,15.7,11.4,-14.3,16.1,11.3,-14.0,0.47,1.86,-13.2,22.5
2016-10-23 01:17:00,0.0,1.95605,0.00052,406.663,0.024,0.2675,0.0022,140.000,45.000,31251.61900,1.96124,407.980,32.054,45.072,45.000,0.00,0.07,-272.86,-272.89,-1,516,-917,15.7,11.3,-14.4,16.1,11.2,-14.2,0.47,1.88,-13.2,22.5
2016-10-23 01:18:00,0.0,1.95591,0.00067,406.697,0.034,0.2653,0.0018,140.002,45.000,31251.77094,1.96104,408.002,32.047,45.072,45.000,0.00,0.07,-272.85,-272.89,-1,516,-917,15.6,11.2,-14.6,16.1,11.0,-14.3,0.47,1.89,-13.2,22.5
2016-10-23 01:19:00,0.0,1.95593,0.00072,406.677,0.031,0.2615,0.0027,140.001,45.000,31252.05213,1.96102,407.968,32.056,45.072,45.000,0.00,0.07,-272.86,-272.89,-1,516,-917,15.7,11.0,-14.7,16.1,10.9,-14.5,0.47,1.90,-13.2,22.5
2016-10-23 01:20:00,0.0,1.95650,0.00053,406.704,0.038,0.2592,0.0018,139.999,45.000,31251.56872,1.96148,407.978,32.064,45.072,45.000,0.00,0.07,-272.86,-272.89,-1,516,-917,15.6,10.9,-14.8,16.1,10.8,-14.6,0.47,1.90,-13.2,22.5
2016-10-23 01:21:00,0.0,1.95698,0.00065,406.714,0.032,0.2626,0.0021,140.000,45.000,31252.48565,1.96204,408.007,32.062,45.072,45.000,0.00,0.07,-272.85,-272.89,-2,516,-917,15.6,11.0,-14.7,16.1,10.8,-14.6,0.47,1.88,-13.2,22.5
2016-10-23 01:22:00,0.0,1.95683,0.00086,406.703,0.032,0.2666,0.0019,140.004,45.000,31255.36613,1.96205,408.016,32.055,45.072,45.000,0.00,0.07,-272.86,-272.90,-2,516,-917,15.6,11.2,-14.5,16.1,11.0,-14.4,0.47,1.87,-13.2,22.5
2016-10-23 01:23:00,0.0,1.95607,0.00063,406.696,0.029,0.2685,0.0021,140.001,45.000,31254.53505,1.96126,408.019,32.060,45.072,45.000,0.00,0.07,-272.86,-272.90,-2,516,-917,15.6,11.3,-14.4,16.1,11.1,-14.3,0.47,1.85,-13.2,22.5
2016-10-23 01:24:00,0.0,1.95626,0.00060,406.703,0.041,0.2695,0.0023,140.000,45.000,31254.12508,1.96152,408.030,32.058,45.072,45.000,0.00,0.07,-272.85,-272.90,-1,516,-917,15.7,11.3,-14.4,16.1,11.1,-14.3,0.47,1.84,-13.2,22.5
2016-10-23 01:25:00,0.0,1.95628,0.00069,406.691,0.035,0.2731,0.0028,139.997,45.000,31253.33747,1.96157,408.036,32.065,45.072,45.000,0.00,0.07,-272.86,-272.89,-1,516,-917,15.7,11.5,-14.2,16.1,11.3,-14.1,0.47,1.83,-13.2,22.5
2016-10-23 01:26:00,0.0,1.95614,0.00069,406.645,0.041,0.2728,0.0021,140.000,45.000,31253.26093,1.96142,407.988,32.063,45.072,45.000,0.00,0.07,-272.86,-272.90,-1,516,-917,15.6,11.5,-14.2,16.1,11.3,-14.0,0.47,1.83,-13.2,22.5
2016-10-23 01:27:00,0.0,1.95716,0.00056,406.656,0.038,0.2682,0.0029,140.001,45.000,31254.82198,1.96234,407.978,32.061,45.072,45.000,0.00,0.07,-272.86,-272.89,-1,516,-917,15.6,11.3,-14.4,16.1,11.2,-14.2,0.47,1.84,-13.2,22.5
2016-10-23 01:28:00,0.0,1.95611,0.00052,406.633,0.037,0.2701,0.0017,140.000,45.000,31256.98480,1.96141,407.964,32.063,45.073,45.000,0.00,0.07,-272.86,-272.89,-1,516,-917,15.6,11.4,-14.3,16.1,11.2,-14.2,0.47,1.86,-13.2,22.5
2016-10-23 01:29:00,0.0,1.95674,0.00093,406.686,0.037,0.2676,0.0018,140.001,45.000,31257.30916,1.96194,408.003,32.092,45.073,45.000,0.00,0.07,-272.86,-272.89,-2,516,-917,15.6,11.3,-14.4,16.1,11.1,-14.2,0.47,1.87,-13.2,22.5
2016-10-23 01:30:00,0.0,1.95577,0.00034,406.682,0.033,0.2676,0.0020,140.003,45.000,31256.81102,1.96094,408.001,32.099,45.072,45.000,0.00,0.07,-272.86,-272.90,-2,516,-917,15.6,11.3,-14.4,16.1,11.1,-14.2,0.47,1.89,-13.2,22.5
2016-10-23 01:31:00,0.0,1.95605,0.00061,406.682,0.028,0.2682,0.0019,140.000,45.000,31255.78388,1.96124,408.002,32.123,45.072,45.000,0.00,0.07,-272.86,-272.89,-1,516,-917,15.6,11.3,-14.4,16.1,11.1,-14.3,0.47,1.90,-13.2,22.5
2016-10-23 01:32:00,0.0,1.95591,0.00056,406.680,0.032,0.2649,0.0016,139.999,45.000,31255.91145,1.96105,407.984,32.124,45.072,45.000,0.00,0.07,-272.86,-272.89,-1,516,-917,15.6,11.2,-14.6,16.1,11.0,-14.3,0.47,1.90,-13.2,22.5
2016-10-23 01:33:00,0.0,1.95591,0.00053,406.731,0.031,0.2672,0.0019,140.001,45.000,31256.28354,1.96108,408.047,32.126,45.072,45.000,0.00,0.07,-272.86,-272.89,-1,516,-917,15.6,11.2,-14.5,16.1,11.0,-14.3,0.47,1.89,-13.2,22.5
2016-10-23 01:34:00,0.0,1.95662,0.00063,406.728,0.047,0.2679,0.0020,140.002,45.000,31255.74873,1.96184,408.048,32.126,45.072,45.000,0.00,0.07,-272.86,-272.89,-1,516,-917,15.7,11.3,-14.4,16.1,11.1,-14.3,0.47,1.88,-13.2,22.5
2016-10-23 01:35:00,0.0,1.95656,0.00048,406.685,0.032,0.2715,0.0022,140.001,45.000,31255.98315,1.96180,408.022,32.126,45.072,45.000,0.00,0.07,-272.85,-272.89,-1,516,-917,15.7,11.4,-14.3,16.1,11.2,-14.2,0.47,1.86,-13.1,22.5
2016-10-23 01:36:00,0.0,1.95693,0.00091,406.727,0.046,0.2681,0.0013,139.999,45.000,31253.63834,1.96215,408.048,32.129,45.072,45.000,0.00,0.07,-272.86,-272.90,-2,516,-917,15.6,11.3,-14.4,16.1,11.1,-14.2,0.47,1.84,-13.2,22.5
2016-10-23 01:37:00,0.0,1.95602,0.00067,406.710,0.031,0.2674,0.0018,139.999,45.000,31253.91872,1.96119,408.026,32.127,45.072,45.000,0.00,0.07,-272.86,-272.90,-1,516,-917,15.7,11.3,-14.4,16.1,11.1,-14.2,0.47,1.83,-13.2,22.5
2016-10-23 01:38:00,0.0,1.95642,0.00068,406.705,0.034,0.2672,0.0014,140.000,45.000,31255.03204,1.96159,408.022,32.125,45.072,45.000,0.00,0.07,-272.85,-272.89,-1,516,-917,15.6,11.2,-14.5,16.1,11.1,-14.3,0.47,1.83,-13.2,22.5
2016-10-23 01:39:00,0.0,1.95654,0.00048,406.679,0.032,0.2670,0.0018,140.001,45.000,31253.89366,1.96175,407.994,32.116,45.072,45.000,0.00,0.07,-272.86,-272.90,-1,516,-917,15.7,11.2,-14.5,16.1,11.1,-14.3,0.47,1.83,-13.2,22.5
2016-10-23 01:40:00,0.0,1.95613,0.00068,406.705,0.041,0.2643,0.0019,139.998,45.000,31254.07673,1.96126,408.007,32.109,45.072,45.000,0.00,0.07,-272.87,-272.90,-1,516,-917,15.7,11.1,-14.6,16.1,11.0,-14.4,0.47,1.84,-13.2,22.5
2016-10-23 01:41:00,0.0,1.95586,0.00042,406.703,0.038,0.2651,0.0017,140.002,45.000,31256.22198,1.96097,408.008,32.123,45.072,45.000,0.00,0.07,-272.85,-272.89,-1,516,-917,15.7,11.1,-14.6,16.1,10.9,-14.4,0.47,1.87,-13.1,22.5
2016-10-23 01:42:00,0.0,1.95636,0.00059,406.763,0.026,0.2640,0.0016,139.998,45.000,31254.01170,1.96150,408.063,32.125,45.072,45.000,0.00,0.07,-272.85,-272.89,-1,516,-917,15.7,11.1,-14.6,16.1,10.9,-14.4,0.47,1.88,-13.2,22.5
2016-10-23 01:43:00,0.0,1.95662,0.00051,406.774,0.036,0.2649,0.0022,139.997,45.000,31252.30776,1.96178,408.078,32.125,45.072,45.000,0.00,0.07,-272.86,-272.90,-2,516,-917,15.7,11.1,-14.6,16.1,10.9,-14.4,0.47,1.89,-13.1,22.5
2016-10-23 01:44:00,0.0,1.95599,0.00051,406.761,0.043,0.2664,0.0022,140.001,45.000,31255.97525,1.96113,408.074,32.125,45.072,45.000,0.00,0.07,-272.86,-272.90,-2,516,-917,15.7,11.2,-14.5,16.1,11.0,-14.4,0.47,1.90,-13.1,22.5